Weather History for V.C. Bird, Antigua

Change the Weather History Date:

Monday, November 12, 2012

  Actual Average Record
Temperature  
Mean Temperature 78 °F -  
Max Temperature 82 °F 83 °F 89 °F (1997)
Min Temperature 74 °F 74 °F 71 °F (2000)
Cooling Degree Days 13    
Growing Degree Days 28 (Base 50)    
Moisture  
Dew Point 72 °F    
Average Humidity 77    
Maximum Humidity 89    
Minimum Humidity 66    
Precipitation  
Precipitation 0.16 in - - ()
Sea Level Pressure  
Sea Level Pressure 29.89 in    
Wind  
Wind Speed 11 mph ()    
Max Wind Speed 18 mph    
Max Gust Speed -    
Visibility 8.6 miles    
Events Rain    
Averages and records for this station are not official NWS values.
T = Trace of Precipitation, MM = Missing Value Source: Averaged Metar Reports

Daily Weather History Graph

Daily Weather History Graph

Search for Another Location

Airport:

Trip Planner

Search our weather history database for the weather conditions in past years. The results will help you decide how hot, cold, wet, or windy it might be!

Date:

Astronomy

Nov. 12, 2012 Rise Set
Actual Time 6:10 AM AST 5:32 PM AST
Civil Twilight 5:47 AM AST 5:54 PM AST
Nautical Twilight 5:21 AM AST 6:20 PM AST
Astronomical Twilight 4:55 AM AST 6:46 PM AST
Moon 4:38 AM AST (11/12) 4:29 PM AST (11/12)
Length of Visible Light 12h 07m
Length of Day
11h 21m
Waning Crescent, 2% of the Moon is Illuminated
Nov 12
Waning Crescent
Nov 13
New
Nov 20
First Quarter
Nov 28
Full
Dec 6
Last Quarter

Hourly Weather History & Observations

Time (AST) Temp. Heat Index Dew Point Humidity Pressure Visibility Wind Dir Wind Speed Gust Speed Precip Events Conditions
12:00 AM 80.6 °F 85.4 °F 73.4 °F 79% 29.89 in 6.2 mi ESE 6.9 mph - N/A   Partly Cloudy
1:00 AM 80.6 °F 85.4 °F 73.4 °F 79% 29.89 in 6.2 mi ESE 6.9 mph - N/A   Scattered Clouds
2:00 AM 78 °F - 74 °F 84% 29.88 in 15 mi East 18.4 mph - - Rain Light Rain Showers
2:00 AM 78.8 °F - 73.4 °F 83% 29.86 in 6.2 mi East 18.4 mph - N/A Rain Light Rain Showers
3:00 AM 77.0 °F - 71.6 °F 83% 29.86 in 6.2 mi SE 13.8 mph - N/A   Mostly Cloudy
4:00 AM 75.2 °F - 71.6 °F 89% 29.86 in 6.2 mi ENE 5.8 mph - N/A Rain Light Rain
5:00 AM 75 °F - 72 °F 88% 29.88 in 11 mi East 13.8 mph - - Rain Light Rain Showers
5:00 AM 75.2 °F - 71.6 °F 89% 29.86 in 6.2 mi East 13.8 mph - N/A Rain Light Rain Showers
6:00 AM 75.2 °F - 71.6 °F 89% 29.89 in 6.2 mi East 8.1 mph - N/A Rain Light Rain
7:00 AM 77.0 °F - 73.4 °F 89% 29.89 in 6.2 mi East 13.8 mph - N/A Rain Light Rain
8:00 AM 78 °F - 71 °F 74% 29.94 in 17 mi East 12.7 mph - - Rain Light Rain
8:00 AM 78.8 °F - 71.6 °F 78% 29.92 in 6.2 mi East 12.7 mph - N/A Rain Light Rain
9:00 AM 78.8 °F - 69.8 °F 74% 29.95 in 6.2 mi East 15.0 mph - N/A   Mostly Cloudy
10:00 AM 80.6 °F 84.6 °F 71.6 °F 74% 29.95 in 6.2 mi East 15.0 mph - N/A   Scattered Clouds
11:00 AM 81 °F - 72 °F 66% 29.95 in 17 mi ESE 11.5 mph - -   Widespread Dust
11:00 AM 80.6 °F 84.6 °F 71.6 °F 74% 29.95 in 6.2 mi ESE 11.5 mph - N/A   Partly Cloudy
12:00 PM 82.4 °F 87.2 °F 71.6 °F 70% 29.89 in 6.2 mi ESE 15.0 mph - N/A   Partly Cloudy
1:00 PM 82.4 °F 87.2 °F 71.6 °F 70% 29.86 in 6.2 mi ESE 16.1 mph - N/A   Partly Cloudy
2:00 PM 82 °F - 73 °F 68% 29.87 in 17 mi ESE 16.1 mph - -   Widespread Dust
2:00 PM 82.4 °F 88.2 °F 73.4 °F 74% 29.86 in 6.2 mi ESE 16.1 mph - N/A   Partly Cloudy
3:00 PM 82.4 °F 88.2 °F 73.4 °F 74% 29.86 in 6.2 mi ESE 16.1 mph - N/A   Partly Cloudy
4:00 PM 80.6 °F 85.4 °F 73.4 °F 79% 29.86 in 6.2 mi East 11.5 mph - N/A   Partly Cloudy
5:00 PM 81 °F - 73 °F 71% 29.87 in 17 mi ESE 13.8 mph - -   Widespread Dust
5:00 PM 80.6 °F 85.4 °F 73.4 °F 79% 29.86 in 6.2 mi ESE 13.8 mph - N/A   Partly Cloudy
6:00 PM 80.6 °F 84.6 °F 71.6 °F 74% 29.86 in 6.2 mi ESE 13.8 mph - N/A   Partly Cloudy
7:00 PM 80.6 °F 85.4 °F 73.4 °F 79% 29.89 in 6.2 mi ESE 12.7 mph - N/A   Scattered Clouds
8:00 PM 81 °F - 72 °F 69% 29.90 in 16 mi ESE 15.0 mph - -   Mostly Cloudy
8:00 PM 80.6 °F 85.4 °F 73.4 °F 79% 29.89 in 6.2 mi ESE 15.0 mph - N/A   Mostly Cloudy
9:00 PM 80.6 °F 84.6 °F 71.6 °F 74% 29.89 in 6.2 mi ESE 12.7 mph - N/A   Partly Cloudy
10:00 PM 80.6 °F 84.6 °F 71.6 °F 74% 29.92 in 6.2 mi ESE 10.4 mph - N/A   Partly Cloudy
11:00 PM 81 °F - 73 °F 70% 29.92 in 17 mi ESE 10.4 mph - -   Widespread Dust
11:00 PM 80.6 °F 85.4 °F 73.4 °F 79% 29.89 in 6.2 mi ESE 9.2 mph - N/A   Partly Cloudy